Waarnemingen

Advertentie
Mijn weer
Lichtenhain-Mittelndorf, Duitsland (10591): temperatuur & dauwpunt: 23.03.2017 01:00:00 - 29.03.2017 01:00:00 (CEST)Lichtenhain-Mittelndorf, Duitsland (10591): temperatuur 5cm & temperatuur -5cm: 23.03.2017 01:00:00 - 29.03.2017 01:00:00 (CEST)Lichtenhain-Mittelndorf, Duitsland (10591): temperatuur -20cm & temperatuur -100cm: 23.03.2017 01:00:00 - 29.03.2017 01:00:00 (CEST)Lichtenhain-Mittelndorf, Duitsland (10591): windsnelheid & windstoten: 23.03.2017 01:00:00 - 29.03.2017 01:00:00 (CEST)Lichtenhain-Mittelndorf, Duitsland (10591): windrichting: 23.03.2017 01:00:00 - 29.03.2017 01:00:00 (CEST)Lichtenhain-Mittelndorf, Duitsland (10591): luchtdruk: 23.03.2017 01:00:00 - 29.03.2017 01:00:00 (CEST)Lichtenhain-Mittelndorf, Duitsland (10591): zicht: 23.03.2017 01:00:00 - 29.03.2017 01:00:00 (CEST)Lichtenhain-Mittelndorf, Duitsland (10591): Zonneschijnduur: 23.03.2017 01:00:00 - 29.03.2017 01:00:00 (CEST)Lichtenhain-Mittelndorf, Duitsland (10591): neerslag: 23.03.2017 01:00:00 - 29.03.2017 01:00:00 (CEST)
Datum & Tijd tt [°C] td [°C] tt 5cm [°C] tt -5cm [°C] tt -20cm [°C] tt -100cm [°C] ff [km/u] ff [kn] fx [km/u] fx [kn] dd ppp [hPa] vv [km] sd [min] rr [mm]
29.03.2017 01:00:00 9,0 3,0 5,9 7,2 11,0 6,9 6 4 9 5 ZZO 1022,0 59 0 0,0
29.03.2017 00:00:00 10,0 3,2 6,3 7,9 11,6 6,9 3 1 6 3 O 1021,9 63 0 0,0
28.03.2017 23:00:00 10,3 3,7 5,6 9,0 12,2 6,9 3 1 8 4 ZZO 1021,6 45 0 0,0
28.03.2017 22:00:00 11,3 3,0 8,3 10,3 12,8 6,9 6 4 8 4 ZO 1021,3 66 0 0,0
28.03.2017 21:00:00 12,7 3,7 10,7 11,8 13,4 6,9 3 2 8 4 ZO 1020,9 63 0 0,0
28.03.2017 20:00:00 16,6 2,1 12,2 13,8 13,7 6,9 4 2 13 7 NNW 1019,8 59 19 0,0
28.03.2017 19:00:00 17,1 2,7 14,8 16,5 13,8 6,9 10 5 18 10 NNW 1019,7 63 60 0,0
28.03.2017 18:00:00 18,6 3,4 18,6 19,2 13,5 6,9 14 7 19 11 NNW 1019,3 19 60 0,0
28.03.2017 17:00:00 19,7 2,1 20,5 21,2 12,8 6,9 11 6 17 9 N 1019,4 26 60 0,0
28.03.2017 16:00:00 19,7 2,0 23,0 22,1 11,8 6,8 8 4 15 8 NW 1020,0 48 60 0,0
28.03.2017 15:00:00 19,2 1,4 23,5 21,8 10,7 6,8 5 3 16 8 WNW 1020,7 52 60 0,0
28.03.2017 14:00:00 18,7 0,4 22,5 20,3 9,4 6,8 8 5 21 11 W 1021,2 59 60 0,0
28.03.2017 13:00:00 17,8 -1,9 22,0 19,1 8,1 6,8 8 4 18 10 WZW 1022,1 29 60 0,0
28.03.2017 12:00:00 16,8 -0,7 19,9 16,6 6,9 6,8 4 2 9 5 ZW 1022,7 40 60 0,0
28.03.2017 11:00:00 13,9 1,4 17,1 12,5 6,1 6,8 5 3 12 6 Z 1023,1 29 60 0,0
28.03.2017 10:00:00 11,3 0,8 13,0 8,5 5,8 6,8 6 3 16 9 ZO 1023,5 24 60 0,0
28.03.2017 09:00:00 9,1 1,1 9,4 4,5 5,9 6,8 7 4 13 7 O 1023,6 27 60 0,0
28.03.2017 08:00:00 5,4 -1,3 3,4 2,4 6,2 6,8 8 4 15 8 O 1023,9 25 44 0,0
28.03.2017 07:00:00 4,9 -1,9 2,0 2,4 6,6 6,8 9 5 16 9 O 1023,8 25 0 0,0
28.03.2017 06:00:00 4,7 -1,8 1,0 2,7 7,0 6,8 9 5 14 8 O 1023,7 27 0 0,0
28.03.2017 05:00:00 5,2 -2,0 1,6 3,2 7,4 6,8 9 5 13 7 O 1023,6 29 0 0,0
28.03.2017 04:00:00 5,7 -2,4 2,1 3,7 7,8 6,8 6 3 16 8 O 1024,0 29 0 0,0
28.03.2017 03:00:00 6,1 -2,0 3,3 4,2 8,3 6,8 10 6 14 8 O 1024,4 30 0 0,0
28.03.2017 02:00:00 7,1 -2,4 3,3 4,8 8,8 6,7 9 5 14 8 O 1024,4 31 0 0,0
28.03.2017 01:00:00 7,8 -2,3 5,6 5,5 9,4 6,7 10 5 16 8 OZO 1024,6 30 0 0,0
28.03.2017 00:00:00 8,4 -2,2 6,1 6,3 9,9 6,8 13 7 17 9 ZO 1024,8 35 0 0,0
27.03.2017 23:00:00 8,4 -1,5 5,7 7,2 10,5 6,8 8 4 13 7 ZO 1025,1 35 0 0,0
27.03.2017 22:00:00 10,6 -2,2 7,0 8,4 11,1 6,8 5 3 9 5 O 1024,7 40 0 0,0
27.03.2017 21:00:00 11,5 -1,2 9,5 9,9 11,6 6,8 9 5 13 7 ZZO 1024,4 45 0 0,0
27.03.2017 20:00:00 12,9 -0,6 9,1 12,0 11,9 6,8 4 2 12 7 ZZO 1023,9 47 26 0,0
27.03.2017 19:00:00 14,9 0,3 13,4 14,8 11,8 6,8 5 3 9 5 Z 1023,5 47 59 0,0
27.03.2017 18:00:00 16,1 -2,1 15,8 17,3 11,4 6,8 3 2 11 6 ONO 1023,6 50 60 0,0
27.03.2017 17:00:00 16,4 -3,0 17,5 18,6 10,7 6,8 6 3 15 8 ZO 1024,1 47 60 0,0
27.03.2017 16:00:00 15,6 -5,1 17,5 19,1 9,8 6,8 6 3 14 8 ZZO 1024,7 58 60 0,0
27.03.2017 15:00:00 15,2 -6,0 18,1 18,6 8,6 6,7 6 4 21 11 Z 1025,3 62 60 0,0
27.03.2017 14:00:00 14,5 -5,5 17,3 18,0 7,4 6,7 8 5 18 10 ZZO 1026,1 54 60 0,0
27.03.2017 13:00:00 13,2 -5,0 16,5 16,6 6,0 6,7 8 5 18 10 OZO 1027,0 40 60 0,0
27.03.2017 12:00:00 11,5 -1,7 15,5 13,8 4,8 6,7 7 4 10 6 NNO 1027,5 42 60 0,0
27.03.2017 11:00:00 10,8 -1,9 12,9 10,0 4,0 6,7 4 2 9 5 ZO 1027,7 41 60 0,0
27.03.2017 10:00:00 6,4 -0,7 8,8 5,0 3,8 6,7 5 3 9 5 Z 1028,2 46 60 0,0
27.03.2017 09:00:00 3,6 -0,7 4,6 0,5 4,0 6,7 0 0 10 5 N 1028,7 33 60 0,0
27.03.2017 08:00:00 -0,5 -3,3 -1,1 0,5 4,2 6,7 4 2 13 7 O 1029,1 33 42 0,0
27.03.2017 07:00:00 0,5 -3,4 -2,3 0,5 4,5 6,7 3 2 11 6 OZO 1028,9 45 0 0,0
27.03.2017 06:00:00 0,6 -3,2 -2,2 0,6 4,8 6,7 4 2 11 6 ONO 1028,8 43 0 0,0
27.03.2017 05:00:00 -0,4 -3,4 -2,4 0,7 5,2 6,7 6 4 12 7 O 1029,0 44 0 0,0
27.03.2017 04:00:00 0,1 -3,0 -2,4 0,8 5,7 6,7 4 2 13 7 O 1029,2 30 0 0,0
27.03.2017 03:00:00 0,0 -2,8 -2,0 1,0 6,2 6,7 3 1 12 7 OZO 1029,2 32 0 0,0
27.03.2017 02:00:00 1,0 -2,7 -0,8 1,6 6,7 6,7 5 3 13 7 OZO 1029,2 39 0 0,0
27.03.2017 01:00:00 1,2 -2,5 -0,7 2,3 7,2 6,7 5 3 10 6 O 1029,1 45 0 0,0
27.03.2017 00:00:00 2,3 -2,3 0,9 3,0 7,8 6,7 5 3 8 4 O 1028,7 42 0 0,0
26.03.2017 23:00:00 2,7 -1,7 0,6 3,9 8,4 6,7 4 2 5 3 OZO 1028,5 32 0 0,0
26.03.2017 22:00:00 3,5 -1,7 1,7 4,9 9,0 6,7 5 3 10 5 Z 1028,0 70 0 0,0
26.03.2017 21:00:00 6,0 -3,5 1,9 6,3 9,5 6,7 8 4 14 8 O 1027,4 70 0 0,0
26.03.2017 20:00:00 7,5 -3,7 4,4 8,0 9,9 6,7 10 6 19 10 O 1026,8 70 16 0,0
26.03.2017 19:00:00 8,6 -3,0 7,6 10,5 10,0 6,7 15 8 23 12 ONO 1026,4 70 51 0,0
26.03.2017 18:00:00 10,0 -3,2 10,1 12,8 9,8 6,7 12 7 26 14 ONO 1026,2 37 59 0,0
26.03.2017 17:00:00 10,7 -2,5 12,1 14,5 9,3 6,7 16 9 29 16 NO 1026,1 41 60 0,0
26.03.2017 16:00:00 10,5 -4,1 12,6 15,4 8,6 6,7 10 5 29 16 ONO 1026,3 45 60 0,0
26.03.2017 15:00:00 10,6 -2,3 12,8 15,0 7,8 6,7 18 10 33 18 NO 1026,5 39 57 0,0
26.03.2017 14:00:00 10,5 -1,0 13,0 14,2 7,0 6,7 16 9 34 18 NO 1026,4 43 56 0,0
26.03.2017 13:00:00 8,9 -2,5 9,8 11,7 6,1 6,7 19 10 31 17 NO 1026,6 68 34 0,0
26.03.2017 12:00:00 9,2 -2,3 12,3 12,8 5,1 6,7 10 5 20 11 O 1026,4 47 60 0,0
26.03.2017 11:00:00 7,5 0,3 11,4 9,7 4,3 6,7 6 4 10 6 N 1026,7 36 60 0,0
26.03.2017 10:00:00 4,8 0,6 8,2 5,6 4,0 6,7 5 3 9 5 NNW 1026,6 28 60 0,0
26.03.2017 09:00:00 3,1 -0,2 3,5 2,0 4,2 6,7 5 3 6 4 NNO 1026,4 19 59 0,0
26.03.2017 08:00:00 0,9 -0,7 0,0 0,6 4,4 6,7 2 1 10 5 ZZW 1026,1 18 37 0,0
26.03.2017 07:00:00 -0,3 -1,4 -1,2 0,5 4,8 6,7 7 4 9 5 NNO 1026,2 10 0 0,0
26.03.2017 06:00:00 0,8 -1,0 -0,5 0,8 5,1 6,7 4 2 7 4 NNO 1025,8 14 0 0,0
26.03.2017 05:00:00 1,4 -0,5 -1,1 1,2 5,5 6,7 6 4 12 6 NO 1025,5 18 0 0,0
26.03.2017 04:00:00 2,5 0,0 0,7 1,7 5,8 6,7 5 3 19 10 NNO 1025,4 21 0 0,0
26.03.2017 03:00:00 2,9 -0,1 1,4 2,3 6,2 6,7 11 6 22 12 ONO 1025,6 20 0 0,0
26.03.2017 02:00:00 3,5 0,0 2,3 2,9 6,5 6,7 14 8 31 17 ONO 1025,2 25 0 0,0
26.03.2017 01:00:00 4,6 -0,3 3,6 3,4 6,9 6,7 18 10 32 17 NO 1024,9 34 0 0,0
26.03.2017 00:00:00 5,4 -0,4 4,4 3,7 7,3 6,7 16 8 28 15 NNO 1024,7 47 0 0,0
25.03.2017 23:00:00 5,4 -1,2 3,9 4,1 7,8 6,7 14 8 23 12 N 1025,0 45 0 0,0
25.03.2017 22:00:00 5,9 -1,1 4,5 4,8 8,2 6,7 16 8 22 12 N 1025,0 38 0 0,0
25.03.2017 21:00:00 6,5 0,3 5,1 5,6 8,7 6,6 16 9 22 12 N 1024,3 27 0 0,0
25.03.2017 20:00:00 7,4 -0,2 5,1 6,9 9,1 6,6 11 6 20 11 NW 1024,5 28 0 0,0
25.03.2017 19:00:00 8,7 -0,2 7,3 8,7 9,2 6,6 14 8 29 16 NW 1024,7 34 26 0,0
25.03.2017 18:00:00 9,5 -0,5 9,4 10,5 9,1 6,6 21 11 32 17 NNW 1025,3 33 57 0,0
25.03.2017 17:00:00 10,2 -1,1 11,2 12,1 8,8 6,6 16 9 34 18 NW 1025,7 36 57 0,0
25.03.2017 16:00:00 10,3 -1,8 12,0 12,5 8,4 6,6 22 12 37 20 NW 1026,6 37 47 0,0
25.03.2017 15:00:00 10,3 0,1 12,6 12,4 7,8 6,6 19 10 30 16 NW 1027,2 34 31 0,0
25.03.2017 14:00:00 9,7 -0,5 12,1 12,6 7,0 6,6 21 11 31 17 NNW 1028,5 31 25 0,0
25.03.2017 13:00:00 9,8 1,0 14,2 13,6 6,1 6,6 10 5 20 11 NW 1029,1 24 59 0,0
25.03.2017 12:00:00 7,7 1,5 11,7 10,4 5,3 6,6 9 5 15 8 WZW 1030,2 24 33 0,0
25.03.2017 11:00:00 6,8 1,2 11,1 9,1 4,6 6,6 7 4 13 7 WZW 1030,5 23 60 0,0
25.03.2017 10:00:00 4,4 1,2 7,1 5,2 4,4 6,6 3 2 5 3 ZZW 1031,5 18 59 0,0
25.03.2017 09:00:00 2,0 0,2 2,2 2,1 4,6 6,5 0 0 4 2 N 1031,8 8 22 0,0
25.03.2017 08:00:00 -0,7 -1,2 -1,0 0,7 4,9 6,5 2 1 5 3 NO 1032,3 4,9 0 0,0
25.03.2017 07:00:00 -0,2 -0,5 -1,7 0,6 5,3 6,5 3 2 6 3 ONO 1032,2 6 0 0,0
25.03.2017 06:00:00 -0,6 -1,1 -2,0 0,8 5,7 6,5 5 3 6 3 ZZO 1032,3 4,7 0 0,0
25.03.2017 05:00:00 -0,3 -0,8 -2,1 1,2 6,1 6,5 4 2 5 3 Z 1032,6 6 0 0,0
25.03.2017 04:00:00 0,1 -0,5 -0,8 1,7 6,6 6,5 2 1 5 3 O 1032,8 4,9 0 0,0
25.03.2017 03:00:00 0,8 -0,1 -0,2 2,2 7,1 6,5 3 2 7 4 O 1033,0 9 0 0,0
25.03.2017 02:00:00 2,0 0,3 0,0 2,9 7,6 6,5 5 3 8 4 O 1032,9 17 0 0,0
25.03.2017 01:00:00 2,6 0,7 0,0 3,5 8,2 6,5 3 2 6 4 OZO 1032,8 21 0 0,0
25.03.2017 00:00:00 3,0 0,7 0,4 4,3 8,7 6,5 5 3 6 4 O 1032,7 20 0 0,0
24.03.2017 23:00:00 3,2 0,9 2,1 5,2 9,3 6,5 3 2 8 4 NNO 1032,6 15 0 0,0
24.03.2017 22:00:00 4,8 1,1 1,5 6,2 9,9 6,5 2 1 8 4 OZO 1032,2 28 0 0,0
24.03.2017 21:00:00 5,9 1,3 2,2 7,4 10,5 6,5 5 3 8 5 OZO 1031,8 31 0 0,0
24.03.2017 20:00:00 7,2 1,0 5,2 9,0 10,9 6,5 8 4 21 12 NO 1031,1 42 11 0,0
24.03.2017 19:00:00 8,6 1,0 7,9 11,1 11,1 6,5 14 8 27 15 NO 1030,4 49 59 0,0
24.03.2017 18:00:00 9,2 1,3 8,9 13,4 11,0 6,5 14 8 29 16 NO 1030,1 54 43 0,0
24.03.2017 17:00:00 10,6 1,4 12,1 15,1 10,6 6,5 10 5 26 14 NO 1029,9 47 46 0,0
24.03.2017 16:00:00 10,6 1,4 13,0 16,5 10,0 6,5 16 9 30 16 NO 1029,6 32 59 0,0
24.03.2017 15:00:00 10,1 1,0 13,1 16,7 9,1 6,4 22 12 34 18 ONO 1029,6 23 59 0,0
24.03.2017 14:00:00 11,0 1,9 14,7 16,0 8,2 6,4 14 7 33 18 ONO 1029,6 34 60 0,0
24.03.2017 13:00:00 9,8 1,5 13,0 14,2 7,4 6,4 16 9 30 16 NO 1029,8 23 59 0,0
24.03.2017 12:00:00 8,5 1,9 11,1 12,2 6,7 6,4 20 11 34 18 ONO 1029,6 20 59 0,0
24.03.2017 11:00:00 7,7 1,3 10,4 9,6 6,4 6,4 18 10 31 17 NNO 1029,3 19 50 0,0
24.03.2017 10:00:00 6,6 1,8 8,4 7,5 6,2 6,4 10 6 19 10 NO 1029,3 14 2 0,0
24.03.2017 09:00:00 4,9 2,6 5,9 5,8 6,2 6,4 5 3 8 5 W 1028,9 9 0 0,0
24.03.2017 08:00:00 4,4 2,9 4,5 5,0 6,4 6,4 5 3 14 8 WNW 1027,8 7 0 0,0
24.03.2017 07:00:00 4,3 2,9 4,1 5,0 6,5 6,4 10 5 16 9 NNW 1026,9 6 0 0,0
24.03.2017 06:00:00 4,6 3,1 4,6 5,3 6,7 6,4 10 5 16 9 NNW 1026,1 6 0 0,0
24.03.2017 05:00:00 4,9 3,4 4,8 5,5 6,8 6,4 11 6 16 9 NNW 1025,1 5 0 0,0
24.03.2017 04:00:00 5,0 3,6 5,1 5,7 6,9 6,4 11 6 16 9 N 1024,4 4,5 0 0,0
24.03.2017 03:00:00 5,0 4,2 5,1 5,9 7,1 6,4 11 6 18 10 NNW 1024,3 3,5 0 0,0
24.03.2017 02:00:00 5,4 4,3 5,4 6,2 7,2 6,4 9 5 14 8 NW 1023,9 3,9 0 0,0
24.03.2017 01:00:00 5,4 4,4 5,5 6,4 7,4 6,4 5 3 19 10 N 1023,2 3,7 0 0,0
24.03.2017 00:00:00 5,5 4,5 5,4 6,6 7,5 6,4 12 7 16 9 N 1022,7 3,0 0 0,0
23.03.2017 23:00:00 5,9 4,7 6,0 6,9 7,7 6,4 7 4 10 6 NNO 1022,0 3,0 0 0,0
23.03.2017 22:00:00 6,1 4,8 6,1 7,1 7,8 6,4 8 4 14 8 N 1021,2 3,7 0 0,0
23.03.2017 21:00:00 6,4 4,9 6,5 7,5 8,0 6,4 9 5 11 6 NNW 1020,8 4,5 0 0,0
23.03.2017 20:00:00 6,6 4,7 6,7 7,9 8,1 6,4 7 4 9 5 N 1019,9 4,6 0 0,0
23.03.2017 19:00:00 7,1 5,0 7,1 8,5 8,1 6,4 6 4 12 7 NO 1019,0 5 0 0,0
23.03.2017 18:00:00 7,3 4,7 7,6 9,1 8,1 6,4 7 4 17 9 NO 1018,5 6 0 0,0
23.03.2017 17:00:00 7,6 4,7 8,1 9,8 8,0 6,4 11 6 18 10 NO 1018,2 7 0 0,0
23.03.2017 16:00:00 8,3 4,2 9,0 10,5 7,7 6,4 5 3 8 5 ZZO 1017,8 18 0 0,0
23.03.2017 15:00:00 8,4 4,3 9,0 10,5 7,4 6,4 2 1 6 4 NNO 1018,0 20 0 0,0
23.03.2017 14:00:00 8,0 4,0 9,0 10,7 6,9 6,4 4 2 7 4 NO 1018,0 23 0 0,0
23.03.2017 13:00:00 7,8 3,6 9,3 10,9 6,3 6,4 3 1 14 8 ZO 1018,1 23 10 0,0
23.03.2017 12:00:00 7,4 3,9 8,7 9,4 5,7 6,4 5 3 11 6 OZO 1017,7 17 1 0,0
23.03.2017 11:00:00 6,8 3,5 8,1 8,2 5,3 6,3 5 3 14 8 ONO 1018,2 11 0 0,0
23.03.2017 10:00:00 5,4 2,8 6,2 6,5 5,1 6,3 9 5 15 8 O 1018,1 10 0 0,0
23.03.2017 09:00:00 3,9 2,5 4,4 4,2 5,2 6,3 5 3 10 5 ZO 1018,6 8 0 0,0
23.03.2017 08:00:00 2,9 2,0 2,8 3,0 5,4 6,3 8 5 11 6 ONO 1018,1 8 0 0,0
23.03.2017 07:00:00 2,4 1,6 1,6 2,9 5,6 6,3 7 4 13 7 O 1018,2 8 0 0,0
23.03.2017 06:00:00 2,5 1,6 1,7 3,3 5,8 6,3 7 4 13 7 ONO 1017,8 18 0 0,0
23.03.2017 05:00:00 2,8 1,5 2,5 3,6 6,0 6,3 8 5 15 8 OZO 1018,0 18 0 0,0
23.03.2017 04:00:00 3,3 1,6 2,7 3,7 6,3 6,3 8 5 17 9 O 1018,3 20 0 0,0
23.03.2017 03:00:00 3,2 1,6 2,6 4,0 6,5 6,3 5 3 16 9 O 1019,0 21 0 0,0
23.03.2017 02:00:00 3,8 1,7 3,0 4,3 6,8 6,3 11 6 16 9 O 1018,2 24 0 0,0
23.03.2017 01:00:00 - - - - - - - - - - - - - - -

tt = temperatuur
td = dauwpunt
tt 5cm = temperatuur 5cm
tt -5cm = temperatuur -5cm
tt -20cm = temperatuur -20cm
tt -100cm = temperatuur -100cm
ff = windsnelheid
fx = windstoten
dd = windrichting
ppp = luchtdruk
vv = zicht
sd = Zonneschijnduur
rr = neerslag

Weerstations in de omgeving